Weather History for Jamestown, ND

Change the Weather History Date:

Wednesday, October 16, 2013

  Actual Average Record
Temperature  
Mean Temperature 45 °F 44 °F  
Max Temperature 58 °F 56 °F 85 °F (1956)
Min Temperature 32 °F 33 °F 14 °F (1919)
Degree Days  
Heating Degree Days 20 21  
Month to date heating degree days 262 280  
Since 1 July heating degree days 425 598  
Cooling Degree Days 0 0  
Month to date cooling degree days 0 0  
Year to date cooling degree days 521 445  
Moisture  
Dew Point 35 °F    
Average Humidity 70    
Maximum Humidity 96    
Minimum Humidity 43    
Precipitation  
Precipitation 0.00 in 0.06 in 1.42 in (1980)
Month to date precipitation 4.23 0.89  
Year to date precipitation 15.60 17.08  
Sea Level Pressure  
Sea Level Pressure 29.93 in    
Wind  
Wind Speed 7 mph (West)    
Max Wind Speed 18 mph    
Max Gust Speed 23 mph    
Visibility 10 miles    
Events      
T = Trace of Precipitation, MM = Missing Value Source: NWS Daily Summary

Daily Weather History Graph

Daily Weather History Graph

Search for Another Location

Airport:

Trip Planner

Search our weather history database for the weather conditions in past years. The results will help you decide how hot, cold, wet, or windy it might be!

Date:

Astronomy

Oct. 16, 2013 Rise Set
Actual Time 7:54 AM CDT 6:45 PM CDT
Civil Twilight 7:23 AM CDT 7:15 PM CDT
Nautical Twilight 6:48 AM CDT 7:50 PM CDT
Astronomical Twilight 6:13 AM CDT 8:26 PM CDT
Moon 5:31 PM CDT (10/16) 5:15 AM CDT (10/16)
Length of Visible Light 11h 52m
Length of Day
10h 50m
Waxing Gibbous, 94% of the Moon is Illuminated
Oct 16
Waxing Gibbous
Oct 18
Full
Oct 26
Last Quarter
Nov 3
New
Nov 9
First Quarter

Hourly Weather History & Observations

Time (CDT) Temp. Windchill Dew Point Humidity Pressure Visibility Wind Dir Wind Speed Gust Speed Precip Events Conditions
12:56 AM 34.0 °F - 32.0 °F 92% 30.07 in 10.0 mi Calm Calm - N/A   Clear
1:56 AM 33.1 °F 30.0 °F 30.9 °F 92% 30.06 in 10.0 mi West 3.5 mph - N/A   Clear
2:56 AM 32.0 °F - 30.9 °F 96% 30.04 in 10.0 mi Calm Calm - N/A   Clear
3:56 AM 33.1 °F 28.7 °F 30.9 °F 92% 30.02 in 10.0 mi West 4.6 mph - N/A   Clear
4:56 AM 33.1 °F 26.9 °F 30.9 °F 92% 30.00 in 10.0 mi West 6.9 mph - N/A   Clear
5:56 AM 34.0 °F 28.8 °F 30.9 °F 89% 29.99 in 10.0 mi West 5.8 mph - N/A   Clear
6:56 AM 35.1 °F 29.3 °F 30.9 °F 85% 29.98 in 10.0 mi West 6.9 mph - N/A   Clear
7:56 AM 35.1 °F 29.3 °F 30.9 °F 85% 29.97 in 10.0 mi West 6.9 mph - N/A   Clear
8:56 AM 36.0 °F 30.3 °F 32.0 °F 86% 29.97 in 10.0 mi WSW 6.9 mph - N/A   Clear
9:56 AM 41.0 °F 35.2 °F 34.0 °F 76% 29.96 in 10.0 mi West 9.2 mph - N/A   Clear
10:56 AM 46.9 °F - 36.0 °F 66% 29.94 in 10.0 mi West 9.2 mph - N/A   Clear
11:56 AM 51.1 °F - 37.0 °F 59% 29.93 in 10.0 mi West 8.1 mph - N/A   Clear
12:56 PM 54.0 °F - 37.9 °F 55% 29.91 in 10.0 mi West 10.4 mph - N/A   Clear
1:56 PM 55.9 °F - 37.0 °F 49% 29.88 in 10.0 mi WSW 15.0 mph - N/A   Clear
2:56 PM 57.0 °F - 36.0 °F 45% 29.87 in 10.0 mi West 11.5 mph - N/A   Clear
3:56 PM 57.9 °F - 36.0 °F 44% 29.86 in 10.0 mi West 13.8 mph - N/A   Clear
4:56 PM 57.0 °F - 36.0 °F 45% 29.85 in 10.0 mi West 12.7 mph - N/A   Clear
5:56 PM 55.0 °F - 39.0 °F 55% 29.85 in 10.0 mi West 9.2 mph - N/A   Clear
6:56 PM 51.1 °F - 39.0 °F 63% 29.86 in 10.0 mi WSW 4.6 mph - N/A   Clear
7:56 PM 50.0 °F - 39.0 °F 66% 29.86 in 10.0 mi WSW 4.6 mph - N/A   Scattered Clouds
8:56 PM 48.0 °F - 39.0 °F 71% 29.86 in 10.0 mi West 3.5 mph - N/A   Clear
9:56 PM 46.0 °F - 39.9 °F 79% 29.86 in 10.0 mi Calm Calm - N/A   Clear
10:56 PM 46.0 °F 44.8 °F 42.1 °F 86% 29.86 in 10.0 mi WNW 3.5 mph - N/A   Overcast
11:56 PM 46.0 °F 43.1 °F 42.1 °F 86% 29.86 in 10.0 mi WNW 5.8 mph - N/A   Overcast